Tracking 31027 objects as of 19-Jul-2025
HD Live streaming from Space Station
objects crossing your sky now

STARLINK-4008

Track STARLINK-4008 now!
10-day predictions
STARLINK-4008 is classified as:


NORAD ID: 52622
Int'l Code: 2022-052AA
Perigee: 546.1 km
Apogee: 547.7 km
Inclination: 53.2 °
Period: 95.4 minutes
Semi major axis: 6917 km
RCS: Unknown
Launch date: May 14, 2022
Source: United States (US)
Launch site: AIR FORCE EASTERN TEST RANGE (AFETR)
Your satellite tracking list
STARLINK-31009
Track 1 satellite(s)




NASA's NSSDC Master Catalog

Two Line Element Set (TLE):
1 52622U 22052AA  25199.47645311  .00000204  00000-0  30926-4 0  9995
2 52622  53.2171 255.5475 0001188  83.6765 276.4363 15.08838132175423
Source of the keplerian elements: AFSPC